Погода в Плаке

Греция     35°27′08″N   24°12′38″E
темп.,
°C
ветер,
м/с
пор.,
м/с
влажн.,
%
обл.,
%
осадки,
мм/ч
давл.,
гПа
погр.,
м
29 мая, вс
вс2900:00+24юв334531 0.0 100819
03:00+25юз44365 0.0 100721
06:00+23юз22533 0.0 100720
09:00+25ююз34491 0.0 1007116
12:00+23ссз44620 0.0 1009227
15:00+23ссз35690 0.0 1008304
18:00+23ссз56710 0.0 1008224
21:00+22зсз23750 0.0 101055
30 мая, пн
пн3000:00+21сз12720 0.0 101141
03:00+21з12730 0.0 101138
06:00+21з22700 0.0 101164
09:00+21сз12680 0.0 1012158
12:00+22ссз46720 0.0 1013350
15:00+22сз78750 0.0 1013369
18:00+22сз45780 0.0 1013248
21:00+21юз12811 0.0 101464
31 мая, вт
вт3100:00+21ю01740 0.0 101416
03:00+21ююз01660 0.0 101311
06:00+22з11620 0.0 101417
09:00+22сз33652 0.0 1015121
12:00+22ссз3377100 0.0 1015222
15:00+22с23740 0.0 1015190
18:00+23сз01670 0.0 1014103
21:00+22зсз22685 0.0 101413
1 июня, ср
ср100:00+22зюз22670 0.0 101513
03:00+22сз23690 0.0 101437
06:00+22з33680 0.0 101431
09:00+24зсз33590 0.0 1014137
12:00+23сз45670 0.0 1015304
15:00+23сз23700 0.0 1015271
18:00+24сз33640 0.0 1014241
21:00+23зсз22680 0.0 101515
2 июня, чт
чт200:00+22зсз56700 0.0 101477
03:00+23з55640 0.0 101345
06:00+23з55650 0.0 101356
09:00+24зсз45630 0.0 1014229
12:00+24сз34630 0.0 1014225
15:00+23сз45660 0.0 1014295
18:00+23з23600 0.0 1013189
21:00+24зюз33550 0.0 101422